Location: Asheville, NC
(35.6000°N, 82.5500°W)
Time: 23:13:47
(UTC-04:00)

Vanguard 1 Rocket - Pass Details

Date: 13 February 2018
Orbit: 652 x 4225 km, 34.3° (Epoch: 20 May)

Event Time Altitude Azimuth Distance (km) Brightness Sun altitude
Rises 21:56:25 0° 202° (SSW) 6,493 11.8 -46.1°
Reaches altitude 10° 22:00:47 10° 193° (SSW) 5,922 11.4 -46.9°
Enters shadow 22:05:42 21° 181° (S) 5,455 11.1 -47.8°
